Location: ??????????
(54.8537°N, 38.8755°E)
Time: 00:37:03
(UTC+00:00)

Transit 2A Rocket - Pass Details

Date: 13 September 2024
Orbit: 583 x 908 km, 66.7° (Epoch: 15 October)

Event Time Altitude Azimuth Distance (km) Brightness Sun altitude
Exits shadow 01:05:58 - 288° (WNW) 2,691 7.4 -15.4°
Reaches altitude 10° 01:06:17 10° 290° (WNW) 2,599 7.4 -15.4°
Maximum altitude 01:11:29 28° 348° (NNW) 1,625 6.9 -14.7°
Drops below altitude 10° 01:16:37 10° 47° (NE) 2,558 9.0 -14.1°
Sets 01:19:27 0° 59° (ENE) 3,464 10.4 -13.7°
